Location: Newark
(52.2583°N, 7.1190°W)
Time: 12:56:53
(UTC+00:00)

N. Korean satellite - Pass Details

Date: 28 October 2019
Orbit: 456 x 506 km, 97.2° (Epoch: 21 November)

Event Time Altitude Azimuth Distance (km) Brightness Sun altitude
Rises 18:18:04 0° 199° (SSW) 2,482 10.5 -11.3°
Reaches altitude 10° 18:20:26 10° 216° (SW) 1,620 9.8 -11.6°
Maximum altitude 18:23:10 21° 268° (W) 1,103 9.5 -12.1°
Drops below altitude 10° 18:25:56 10° 319° (NW) 1,652 9.8 -12.5°
Sets 18:28:23 0° 336° (NNW) 2,547 10.5 -12.9°
